Zurück zum Katalog

YAOGAN-50

AktivMilitärLEO
NORAD 67433·PAYLOAD·🇨🇳 China

Gestartet Jan 13, 2026 von Taiyuan Satellite Launch Center

Loading…

Nächste Überflüge (nächste 24 Stunden)

TLE

AktuellSource: Space-Track

Epoche: Sep 14, 2026, 13:46 UTC

1 67433U 26006A   26257.57394948  .00000315  00000-0  11480-3 0  9994
2 67433 142.0416 287.7440 0001058 288.2462  71.8142 13.83249634 33812

Verfolge YAOGAN-50 in Echtzeit mit AllMySat

Download on the App Store